OpenBCM V1.08-5-g2f4a (Linux)

Packet Radio Mailbox

IZ3LSV

[San Dona' di P. JN]

 Login: GUEST





  
CX2SA  > KEPS     27.05.22 02:48l 596 Lines 29123 Bytes #999 (0) @ WW
BID : ORB22146.N
Read: GUEST
Subj: 2Line Orbital Elements 22146.AMSAT
Path: IZ3LSV<DB0ERF<DK0WUE<PE1RRR<PI8ZTM<CX2SA
Sent: 220527/0033Z @:CX2SA.SAL.URY.SOAM #:11221 [Salto] FBB7.00e $:ORB22146.N
From: CX2SA@CX2SA.SAL.URY.SOAM
To  : KEPS@AMSAT


HR AMSAT ORBITAL ELEMENTS FOR AMATEUR SATELLITES IN NASA FORMAT
FROM WA5QGD FORT WORTH,TX May 26, 2022
BID: ORB22146.N

DECODE 2-LINE ELSETS WITH THE FOLLOWING KEY:
1 AAAAAU 00  0  0 BBBBB.BBBBBBBB  .CCCCCCCC  00000-0  00000-0 0  DDDZ
2 AAAAA EEE.EEEE FFF.FFFF GGGGGGG HHH.HHHH III.IIII JJ.JJJJJJJJKKKKKZ
KEY: A-CATALOGNUM B-EPOCHTIME C-DECAY D-ELSETNUM E-INCLINATION F-RAAN
G-ECCENTRICITY H-ARGPERIGEE I-MNANOM J-MNMOTION K-ORBITNUM Z-CHECKSUM

TO ALL RADIO AMATEURS BT

AO-07
1 07530U 74089B   22146.73920109 -.00000035  00000-0  65874-4 0  9992
2 07530 101.9031 126.5417 0012650  83.4659  92.3961 12.53655085174986
UO-11
1 14781U 84021B   22145.52098221  .00001300  00000-0  16346-3 0  9996
2 14781  97.6160 134.0022 0009546  45.4975 314.7018 14.83643170 36642
LO-19
1 20442U 90005G   22146.66610155  .00000136  00000-0  66301-4 0  9991
2 20442  98.7924 111.1966 0010815 229.5434 130.4807 14.33058435690040
HUBBLE
1 20580U 90037B   22146.82705566  .00003020  00000-0  16787-3 0  9995
2 20580  28.4703 312.0965 0002613 155.2601 309.8298 15.10511406563208
MET-2/21
1 22782U 93055A   22146.24191330  .00000080  00000-0  58863-4 0  9993
2 22782  82.5516  31.8686 0023414  51.8433  68.2304 13.83853869450938
AO-27
1 22825U 93061C   22142.62889998  .00000170  00000-0  83617-4 0  9995
2 22825  98.8885 173.1183 0009408 123.1603 237.0482 14.30169275494469
IO-26
1 22826U 93061D   22146.78507055  .00000124  00000-0  65433-4 0  9993
2 22826  98.8825 177.2438 0010117 100.6644 259.5678 14.30515703495565
FO-29
1 24278U 96046B   22145.28887785  .00000001  00000-0  38613-4 0  9991
2 24278  98.5173 172.1594 0349944 343.5996  15.4048 13.53114855272479
NOAA-15
1 25338U 98030A   22146.81078338  .00000214  00000-0  10777-3 0  9996
2 25338  98.6453 176.6279 0010382   7.8522 352.2818 14.26130003250189
GO-32
1 25397U 98043D   22146.43222982  .00000082  00000-0  55405-4 0  9990
2 25397  98.8163  96.8437 0001755 133.1671 226.9654 14.23753987240290
ISS
1 25544U 98067A   22146.78315611  .00010516  00000-0  19396-3 0  9991
2 25544  51.6433  82.5958 0005031 160.2374 237.9832 15.49700356341869
NO-44
1 26931U 01043C   22145.38284697  .00000106  00000-0  72021-4 0  9993
2 26931  67.0499 117.9456 0007900 267.0293  92.9905 14.30700696 78102
SO-50
1 27607U 02058C   22146.23522426  .00000752  00000-0  12409-3 0  9991
2 27607  64.5560   9.8918 0077177 298.7674  60.5691 14.76105647 45093
CO-55
1 27844U 03031E   22146.76146688  .00000301  00000-0  15439-3 0  9992
2 27844  98.6787 154.7757 0010291 158.2014 201.9603 14.22443486980828
CO-57
1 27848U 03031J   22146.50661118  .00000291  00000-0  15137-3 0  9991
2 27848  98.6830 155.0486 0009912 172.5808 187.5518 14.22001727980598
RS-22
1 27939U 03042A   22146.84942582  .00001054  00000-0  19534-3 0  9991
2 27939  98.1879 287.5798 0011627 276.5887  83.3995 14.67333306997873
NOAA-18
1 28654U 05018A   22146.74660594  .00000159  00000-0  10992-3 0  9994
2 28654  98.9495 217.1991 0014771  37.2225 322.9967 14.12733648877001
CO-58
1 28895U 05043F   22146.44770015  .00001258  00000-0  24702-3 0  9991
2 28895  98.1031 278.1696 0016139 206.4037 153.6344 14.64309580884193
Falconsat-3
1 30776U 07006E   22146.40015271  .00039611  00000-0  63432-3 0  9992
2 30776  35.4327  44.5995 0003906 274.4991  85.5295 15.52068688846156
CO-65
1 32785U 08021C   22146.39673964  .00002873  00000-0  30679-3 0  9996
2 32785  97.6553 117.9471 0011290 312.5078  47.5185 14.89523944763208
AAUSAT2
1 32788U 08021F   22146.51919344  .00005693  00000-0  49466-3 0  9995
2 32788  97.5329 132.6153 0010843 184.6199 175.4925 14.97331644765159
DO-64
1 32789U 08021G   22146.53389565  .00014603  00000-0  82058-3 0  9999
2 32789  97.3406 173.6307 0011621  50.5524 309.6734 15.13341763768613
CO-66
1 32791U 08021J   22145.71705201  .00003324  00000-0  32828-3 0  9998
2 32791  97.6094 122.8087 0011001 265.4137  94.5826 14.92564750763809
RS-30
1 32953U 08025A   22146.80934911  .00000021  00000-0  80971-4 0  9999
2 32953  82.5047 197.3896 0018088 310.0105  49.9386 12.43110144635642
PRISM
1 33493U 09002B   22145.45987611  .00005942  00000-0  48656-3 0  9990
2 33493  98.2311 130.7271 0012369 237.5894 122.4131 14.99660779725543
NOAA-19
1 33591U 09005A   22146.81618838  .00000200  00000-0  13339-3 0  9997
2 33591  99.1492 180.4968 0012944 246.9239 113.0568 14.12568729685398
SRMSAT
1 37841U 11058D   22146.35506027  .00000427  00000-0  89731-4 0  9996
2 37841  19.9735  28.4918 0011943 101.6213  55.7769 14.10752402548117
HRBE
1 37855U 11061F   22146.27203655  .00018140  00000-0  79598-3 0  9997
2 37855 101.7057 253.6325 0154814 129.0044 232.5074 15.11878901577889
RS-40
1 38735U 12041C   22146.75609932  .00000028  00000-0  13127-3 0  9997
2 38735  82.4743 279.0182 0018052  60.8365 299.4520 12.42585701445828
ZACUBE-1
1 39417U 13066B   22146.63103671  .00002246  00000-0  27913-3 0  9991
2 39417  97.6345 119.1174 0059428 115.4580 245.2799 14.82263808459891
Delfi-N3xt
1 39428U 13066N   22146.32346410  .00004121  00000-0  63920-3 0  9991
2 39428  97.8134  81.6343 0117440 349.5115  10.3642 14.69093096455287
GOMX-1
1 39430U 13066Q   22146.73182759  .00002023  00000-0  36697-3 0  9993
2 39430  97.8107  55.1705 0150658 113.1420 248.5734 14.60131854453124
LO-74
1 39440U 13066AA  22145.82782465  .00001790  00000-0  24899-3 0  9994
2 39440  97.7238 104.3399 0078051 203.8214 155.9377 14.76950041456940
AO-73
1 39444U 13066AE  22146.39373312  .00003031  00000-0  36534-3 0  9997
2 39444  97.6218 121.2933 0058470 104.9146 255.8553 14.83328093458257
SPROUT
1 39770U 14029E   22146.56809174  .00009499  00000-0  97242-3 0  9995
2 39770  97.9376 263.3767 0008969 152.4697 207.6953 14.90698198434401
DTUSAT-2
1 40030U 14033W   22146.81944482  .00002957  00000-0  31311-3 0  9998
2 40030  97.9368  79.5018 0013071 120.9628 239.2875 14.89875720430937
EO-80
1 40032U 14033Y   22146.32108527  .00002539  00000-0  26984-3 0  9994
2 40032  97.9367  79.0149 0012990 123.2151 237.0314 14.89844572430322
HODOYOSHI-1
1 40299U 14070B   22146.78872814  .00007739  00000-0  29643-3 0  9999
2 40299  97.2437 215.5552 0011674 207.1604 291.1001 15.26744900419750
FIREBIRD FU3
1 40377U 15003B   22146.84175290  .00020353  00000-0  61606-3 0  9996
2 40377  99.1043   6.9451 0103143  98.5756 262.7182 15.29064917405120
FIREBIRD FU4
1 40378U 15003C   22146.54148014  .00021677  00000-0  65390-3 0  9992
2 40378  99.1047   6.7835 0103190  99.2245 262.0678 15.29148881405072
GRIFEX
1 40379U 15003D   22146.83612341  .00014423  00000-0  51324-3 0  9997
2 40379  99.1145 353.2983 0117664 139.4113 221.5965 15.22706369404340
XW-2A
1 40903U 15049E   22146.81811362  .00028449  00000-0  46123-3 0  9996
2 40903  97.1800 205.3312 0010166 188.8649 282.7879 15.52675906375900
XW-2C
1 40906U 15049H   22146.86316182  .00008743  00000-0  42098-3 0  9996
2 40906  97.4930 150.4529 0015775  76.3769  41.5648 15.18884789369647
XW-2D
1 40907U 15049J   22146.83031313  .00009804  00000-0  46339-3 0  9995
2 40907  97.4920 150.3820 0015155  72.2537  50.1968 15.19502835369685
LILACSAT-2
1 40908U 15049K   22146.84297547  .00004732  00000-0  25126-3 0  9996
2 40908  97.5159 147.6419 0017015  91.2521  29.5982 15.15683441369219
XW-2E
1 40909U 15049L   22146.86394972  .00015024  00000-0  63613-3 0  9998
2 40909  97.4649 154.8948 0013532  56.9480  62.6409 15.23186763370120
XW-2F
1 40910U 15049M   22146.78429488  .00015030  00000-0  64600-3 0  9996
2 40910  97.4725 153.9441 0014700  56.4020  63.4254 15.22660634369889
XW-2B
1 40911U 15049N   22146.85331228  .00009887  00000-0  46878-3 0  9999
2 40911  97.4899 151.0131 0014867  73.8057  45.7191 15.19394959369573
DCBB
1 40912U 15049P   22146.69881689  .00017121  00000-0  67210-3 0  9996
2 40912  97.4382 158.2117 0013580  27.4381  83.7312 15.25700378370437
TW-1A
1 40928U 15051D   22146.73005876  .00052363  00000-0  68996-3 0  9996
2 40928  97.0409 169.5970 0010260 107.4949   3.5130 15.58212810374856
IO-86
1 40931U 15052B   22146.70485494  .00000720  00000-0  10909-4 0  9998
2 40931   5.9999 324.1982 0013435 228.1813 131.7554 14.76804740360129
ATHENOXAT-1
1 41168U 15077C   22146.63660813  .00024043  00000-0  10266-2 0  9998
2 41168  14.9851 252.0951 0008974 291.0794 106.0820 15.20579186356986
ChubuSat-2
1 41338U 16012B   22146.45942539  .00002462  00000-0  18004-3 0  9995
2 41338  31.0014 163.9302 0013429 293.8157  66.1071 15.01310223344176
ChubuSat-3
1 41339U 16012C   22146.45342383  .00002961  00000-0  21738-3 0  9999
2 41339  31.0109 160.9127 0013360 300.5642  59.3675 15.01397745344171
Horyu-4
1 41340U 16012D   22146.39383765  .00004346  00000-0  30693-3 0  9992
2 41340  31.0032 139.9941 0013220 339.7593  20.2518 15.03199668344407
e-st@r-II
1 41459U 16025D   22146.53602227  .00011843  00000-0  51755-3 0  9992
2 41459  98.1831 310.0746 0145581 344.1151  15.5524 15.13134209334189
AAUSAT4
1 41460U 16025E   22146.73583688  .00018446  00000-0  71930-3 0  9998
2 41460  98.1809 316.2991 0126760 320.2439  38.9266 15.18771775334641
LO-87
1 41557U 16033B   22146.86935090  .00018781  00000-0  56671-3 0  9993
2 41557  97.3865 244.5385 0012273  96.5184  39.5200 15.34254670334074
NuSat2
1 41558U 16033C   22146.86099476  .00017279  00000-0  49061-3 0  9999
2 41558  97.4055 250.1138 0011632  86.1443  62.0702 15.36195761334331
Lapan A3
1 41603U 16040E   22146.79164867  .00002330  00000-0  10908-3 0  9997
2 41603  97.2076 184.7621 0011770 233.0998 247.6175 15.20620334328748
Pratham
1 41783U 16059A   22146.06782325  .00000690  00000-0  14161-3 0  9993
2 41783  97.9143 188.5176 0032153 243.2686 116.5224 14.63338762302356
